#timestamp,LO_Frequency,Hit,StdDev 
1540576815.3,286046999.7,N
1540576835.2,286047000.6,N
1540576855.0,286047001.2,N
1540576855.9,286047001.2,N
1540576875.8,286047000.6,N
1540576895.6,286046998.4,N
1540576915.4,286046998.7,N
1540576935.3,286046997.1,N
1540576955.1,286046997.3,N
1540576975.8,286046999.4,N
1540576995.7,286047000.4,N
1540577015.5,286046998.5,N
1540577035.4,286046998.6,N
1540577055.2,286046999.9,N
1540577075.0,286046997.2,N
1540577075.9,286046997.2,N
1540577095.8,286046998.3,N
1540577115.6,286046998.4,N
1540577135.5,286047000.7,N
1540577155.3,286046999.3,N
1540577175.1,286046998.0,N
1540577195.9,286046998.0,N
1540577215.7,286046997.6,N
1540577235.5,286046995.4,Y
1540577255.4,286046999.5,P
1540577275.2,286046999.1,P
1540577295.1,286046996.7,P
1540577296.0,286046996.7,N
1540577315.8,286046996.6,N
1540577335.6,286046997.3,N
1540577355.5,286046999.4,N
1540577375.3,286046999.6,N
1540577395.1,286046994.9,Y
1540577415.9,286046998.5,P
1540577435.7,286047000.9,P
1540577455.6,286046999.7,N
1540577475.4,286047000.1,N
1540577495.2,286047000.9,N
1540577515.1,286047000.5,N
1540577516.0,286047000.5,N
1540577535.8,286047002.3,N
1540577555.7,286047002.6,N
1540577575.5,286047000.4,N
1540577595.3,286047002.3,N
1540577615.2,286047001.5,N
1540577635.9,286047002.2,N
1540577655.7,286047002.0,N
1540577675.6,286047003.4,N
1540577695.4,286047003.7,N
1540577715.3,286047004.3,N
1540577735.1,286047001.3,N
1540577736.0,286047001.3,N
1540577755.8,286047001.4,N
1540577775.7,286047001.5,N
1540577795.5,286047001.3,N
1540577815.4,286047011.9,Y
1540577835.2,286047005.5,P
1540577855.0,286047003.3,N
1540577855.9,286047003.3,N
1540577875.8,286047003.9,N
1540577895.6,286047004.0,N
1540577915.4,286047002.1,N
1540577935.3,286047002.3,N
1540577955.1,286047002.7,N
1540577975.9,286047001.8,N
1540577995.7,286047001.7,N
1540578015.5,286047002.2,N
1540578035.4,286047002.0,N
1540578055.2,286047002.6,N
1540578075.0,286047001.8,N
1540578075.9,286047001.8,N
1540578095.8,286047005.3,Y
1540578115.6,286047004.1,P
1540578135.5,286047001.8,N
1540578155.3,286047001.9,N
1540578175.1,286047001.9,N
1540578195.9,286046999.8,N
1540578215.7,286047002.2,N
1540578235.5,286047000.8,N
1540578255.4,286047001.2,N
1540578275.2,286047001.2,N
1540578295.1,286047000.7,N
1540578296.0,286047000.7,N
1540578315.8,286047000.0,N
1540578335.6,286047002.5,N
1540578355.5,286047004.4,Y
1540578375.3,286046999.1,P
1540578395.2,286046999.3,N
1540578415.9,286046998.2,N
1540578435.7,286047000.1,N
1540578455.6,286047000.5,N
1540578475.4,286047000.6,N
1540578495.2,286047001.2,N
1540578515.1,286047002.5,N
1540578516.0,286047002.5,N
1540578535.8,286046999.9,N
1540578555.7,286047001.1,N
1540578575.5,286047000.0,N
1540578595.3,286047000.9,N
1540578615.2,286046998.1,N
1540578635.9,286046998.1,N
1540578655.7,286047001.2,N
1540578675.6,286047001.0,N
1540578695.4,286046999.4,N
1540578715.3,286047002.4,N
1540578735.1,286047002.2,N
1540578736.0,286047002.2,N
1540578755.8,286047002.6,N
1540578775.7,286047001.6,N
1540578795.5,286047002.8,N
1540578815.3,286047002.3,N
1540578835.2,286047001.8,N
1540578855.0,286047000.5,N
1540578855.9,286047000.5,N
1540578875.8,286047000.5,N
1540578895.6,286046999.8,N
1540578915.4,286047000.0,N
1540578935.3,286046998.5,N
1540578955.1,286046998.2,N
1540578975.8,286046998.7,N
1540578995.7,286047000.2,N
1540579015.5,286046999.8,N
1540579035.4,286047000.0,N
1540579055.2,286047002.6,N
1540579075.0,286047002.8,N
1540579075.9,286047002.8,N
1540579095.8,286047000.1,N
1540579115.6,286047002.6,N
1540579135.5,286046998.8,N
1540579155.3,286047000.4,N
1540579175.1,286047004.2,N
1540579195.9,286047001.8,N
1540579215.7,286046999.7,N
1540579235.6,286047002.4,N
1540579255.4,286047000.7,N
1540579275.2,286047000.3,N
1540579295.1,286047001.9,N
1540579296.0,286047001.9,N
1540579315.8,286047002.8,N
1540579335.6,286047002.8,N
1540579355.5,286047001.6,N
1540579375.3,286047001.7,N
1540579395.2,286047002.4,N
1540579415.9,286047002.7,N
1540579435.7,286047000.2,N
1540579455.6,286046999.8,N
1540579475.4,286047001.5,N
1540579495.2,286047003.6,N
1540579515.1,286047001.3,N
1540579516.0,286047001.3,N
1540579535.8,286047002.8,N
1540579555.7,286047001.9,N
1540579575.5,286047001.2,N
1540579595.3,286047002.2,N
1540579615.2,286047001.9,N
1540579635.0,286047000.5,N
1540579635.9,286047000.5,N
1540579655.8,286047002.8,N
1540579675.6,286047002.6,N
1540579695.4,286047001.3,N
1540579715.3,286047001.7,N
1540579735.1,286047004.2,Y
1540579755.9,286047002.1,P
1540579775.7,286047000.5,N
1540579795.5,286047000.4,N
1540579815.4,286046999.9,N
1540579835.2,286046999.9,N
1540579855.0,286046999.9,N
1540579855.9,286046999.9,N
1540579875.8,286047001.0,N
1540579895.6,286047000.3,N
1540579915.5,286047000.3,N
1540579935.3,286047001.1,N
1540579955.1,286047001.2,N
1540579975.9,286047000.8,N
1540579995.7,286047000.8,N
1540580015.5,286047000.5,N
1540580035.4,286047002.8,Y
1540580055.2,286047000.7,P
1540580075.1,286047000.2,P
1540580076.0,286047000.2,N
1540580095.8,286047001.0,Y
1540580115.6,286046998.4,P
1540580135.5,286046997.0,N
1540580155.3,286046999.2,N
1540580175.2,286046999.6,N
1540580195.9,286046997.4,N
1540580215.7,286046995.6,Y
1540580235.6,286046997.2,P
1540580255.4,286046995.4,P
1540580275.3,286046995.8,P
1540580295.1,286046993.7,Y
1540580296.0,286046993.7,P
1540580315.8,286047000.2,N
1540580335.7,286047000.4,N
1540580355.5,286047000.3,N
1540580375.3,286047002.3,N
1540580395.2,286047002.7,N
